Year,Month,Day,Hour,Minute,Value (Times are PST for temperature in C)
2006,07,10,00,00,18.20
2006,07,10,00,01,18.20
2006,07,10,00,02,18.20
2006,07,10,00,03,18.20
2006,07,10,00,04,18.20
2006,07,10,00,05,18.20
2006,07,10,00,06,18.20
2006,07,10,00,07,18.20
2006,07,10,00,08,18.20
2006,07,10,00,09,18.10
2006,07,10,00,10,18.10
2006,07,10,00,11,18.10
2006,07,10,00,12,18.10
2006,07,10,00,13,18.10
2006,07,10,00,14,18.10
2006,07,10,00,15,18.10
2006,07,10,00,16,18.00
2006,07,10,00,17,17.90
2006,07,10,00,18,17.90
2006,07,10,00,19,17.90
2006,07,10,00,20,17.90
2006,07,10,00,21,17.90
2006,07,10,00,22,17.90
2006,07,10,00,23,17.90
2006,07,10,00,24,17.90
2006,07,10,00,25,17.90
2006,07,10,00,26,17.90
2006,07,10,00,27,17.90
2006,07,10,00,28,17.90
2006,07,10,00,29,17.90
2006,07,10,00,30,17.90
2006,07,10,00,31,17.80
2006,07,10,00,32,17.80
2006,07,10,00,33,17.80
2006,07,10,00,34,17.80
2006,07,10,00,35,17.80
2006,07,10,00,36,17.80
2006,07,10,00,37,17.80
2006,07,10,00,38,17.80
2006,07,10,00,39,17.80
2006,07,10,00,40,17.80
2006,07,10,00,41,17.80
2006,07,10,00,42,17.80
2006,07,10,00,43,17.80
2006,07,10,00,44,17.80
2006,07,10,00,45,17.80
2006,07,10,00,46,17.80
2006,07,10,00,47,17.80
2006,07,10,00,48,17.80
2006,07,10,00,49,17.80
2006,07,10,00,50,17.80
2006,07,10,00,51,17.80
2006,07,10,00,52,17.80
2006,07,10,00,53,17.80
2006,07,10,00,54,17.80
2006,07,10,00,55,17.80
2006,07,10,00,56,17.80
2006,07,10,00,57,17.70
2006,07,10,00,58,17.70
2006,07,10,00,59,17.70
2006,07,10,01,00,17.70
2006,07,10,01,01,17.70
2006,07,10,01,02,17.70
2006,07,10,01,03,17.70
2006,07,10,01,04,17.70
2006,07,10,01,05,17.70
2006,07,10,01,06,17.70
2006,07,10,01,07,17.70
2006,07,10,01,08,17.70
2006,07,10,01,09,17.70
2006,07,10,01,10,17.70
2006,07,10,01,11,17.70
2006,07,10,01,12,17.60
2006,07,10,01,13,17.60
2006,07,10,01,14,17.60
2006,07,10,01,15,17.60
2006,07,10,01,16,17.60
2006,07,10,01,17,17.60
2006,07,10,01,18,17.60
2006,07,10,01,19,17.60
2006,07,10,01,20,17.60
2006,07,10,01,21,17.60
2006,07,10,01,22,17.60
2006,07,10,01,23,17.60
2006,07,10,01,24,17.60
2006,07,10,01,25,17.60
2006,07,10,01,26,17.60
2006,07,10,01,27,17.60
2006,07,10,01,28,17.60
2006,07,10,01,29,17.60
2006,07,10,01,30,17.60
2006,07,10,01,31,17.60
2006,07,10,01,32,17.60
2006,07,10,01,33,17.60
2006,07,10,01,34,17.60
2006,07,10,01,35,17.60
2006,07,10,01,36,17.60
2006,07,10,01,37,17.60
2006,07,10,01,38,17.60
2006,07,10,01,39,17.50
2006,07,10,01,40,17.50
2006,07,10,01,41,17.50
2006,07,10,01,42,17.50
2006,07,10,01,43,17.50
2006,07,10,01,44,17.40
2006,07,10,01,45,17.40
2006,07,10,01,46,17.40
2006,07,10,01,47,17.40
2006,07,10,01,48,17.40
2006,07,10,01,49,17.40
2006,07,10,01,50,17.30
2006,07,10,01,51,17.30
2006,07,10,01,52,17.30
2006,07,10,01,53,17.30
2006,07,10,01,54,17.30
2006,07,10,01,55,17.30
2006,07,10,01,56,17.30
2006,07,10,01,57,17.30
2006,07,10,01,58,17.30
2006,07,10,01,59,17.30
2006,07,10,02,00,17.30
2006,07,10,02,01,17.20
2006,07,10,02,02,17.20
2006,07,10,02,03,17.20
2006,07,10,02,04,17.20
2006,07,10,02,05,17.20
2006,07,10,02,06,17.20
2006,07,10,02,07,17.20
2006,07,10,02,08,17.10
2006,07,10,02,09,17.10
2006,07,10,02,10,17.10
2006,07,10,02,11,17.10
2006,07,10,02,12,17.10
2006,07,10,02,13,17.10
2006,07,10,02,14,17.10
2006,07,10,02,15,17.10
2006,07,10,02,16,17.10
2006,07,10,02,17,17.10
2006,07,10,02,18,17.10
2006,07,10,02,19,17.00
2006,07,10,02,20,17.00
2006,07,10,02,21,17.00
2006,07,10,02,22,17.00
2006,07,10,02,23,17.00
2006,07,10,02,24,17.00
2006,07,10,02,25,17.00
2006,07,10,02,26,16.90
2006,07,10,02,27,16.90
2006,07,10,02,28,16.90
2006,07,10,02,29,16.90
2006,07,10,02,30,16.90
2006,07,10,02,31,16.90
2006,07,10,02,32,16.90
2006,07,10,02,33,16.90
2006,07,10,02,34,16.90
2006,07,10,02,35,16.90
2006,07,10,02,36,16.80
2006,07,10,02,37,16.80
2006,07,10,02,38,16.80
2006,07,10,02,39,16.80
2006,07,10,02,40,16.80
2006,07,10,02,41,16.80
2006,07,10,02,42,16.80
2006,07,10,02,43,16.80
2006,07,10,02,44,16.80
2006,07,10,02,45,16.80
2006,07,10,02,46,16.70
2006,07,10,02,47,16.70
2006,07,10,02,48,16.70
2006,07,10,02,49,16.70
2006,07,10,02,50,16.70
2006,07,10,02,51,16.60
2006,07,10,02,52,16.60
2006,07,10,02,53,16.50
2006,07,10,02,54,16.40
2006,07,10,02,55,16.40
2006,07,10,02,56,16.40
2006,07,10,02,57,16.40
2006,07,10,02,58,16.30
2006,07,10,02,59,16.30
2006,07,10,03,00,16.20
2006,07,10,03,01,16.20
2006,07,10,03,02,16.10
2006,07,10,03,03,16.10
2006,07,10,03,04,16.10
2006,07,10,03,05,16.10
2006,07,10,03,06,16.00
2006,07,10,03,07,15.90
2006,07,10,03,08,15.90
2006,07,10,03,09,15.90
2006,07,10,03,10,15.80
2006,07,10,03,11,15.80
2006,07,10,03,12,15.80
2006,07,10,03,13,15.80
2006,07,10,03,14,15.70
2006,07,10,03,15,15.70
2006,07,10,03,16,15.70
2006,07,10,03,17,15.60
2006,07,10,03,18,15.60
2006,07,10,03,19,15.60
2006,07,10,03,20,15.60
2006,07,10,03,21,15.50
2006,07,10,03,22,15.50
2006,07,10,03,23,15.50
2006,07,10,03,24,15.50
2006,07,10,03,25,15.40
2006,07,10,03,26,15.40
2006,07,10,03,27,15.40
2006,07,10,03,28,15.30
2006,07,10,03,29,15.30
2006,07,10,03,30,15.30
2006,07,10,03,31,15.30
2006,07,10,03,32,15.30
2006,07,10,03,33,15.30
2006,07,10,03,34,15.20
2006,07,10,03,35,15.20
2006,07,10,03,36,15.20
2006,07,10,03,37,15.10
2006,07,10,03,38,15.10
2006,07,10,03,39,15.00
2006,07,10,03,40,15.00
2006,07,10,03,41,15.00
2006,07,10,03,42,15.00
2006,07,10,03,43,14.90
2006,07,10,03,44,14.90
2006,07,10,03,45,14.90
2006,07,10,03,46,14.90
2006,07,10,03,47,14.90
2006,07,10,03,48,14.80
2006,07,10,03,49,14.80
2006,07,10,03,50,14.80
2006,07,10,03,51,14.80
2006,07,10,03,52,14.80
2006,07,10,03,53,14.80
2006,07,10,03,54,14.80
2006,07,10,03,55,14.80
2006,07,10,03,56,14.80
2006,07,10,03,57,14.80
2006,07,10,03,58,14.80
2006,07,10,03,59,14.80
2006,07,10,04,00,14.80
2006,07,10,04,01,14.80
2006,07,10,04,02,14.80
2006,07,10,04,03,14.80
2006,07,10,04,04,14.80
2006,07,10,04,05,14.80
2006,07,10,04,06,14.80
2006,07,10,04,07,14.80
2006,07,10,04,08,14.80
2006,07,10,04,09,14.80
2006,07,10,04,10,14.80
2006,07,10,04,11,14.80
2006,07,10,04,12,14.80
2006,07,10,04,13,14.80
2006,07,10,04,14,14.80
2006,07,10,04,15,14.80
2006,07,10,04,16,14.80
2006,07,10,04,17,14.80
2006,07,10,04,18,14.80
2006,07,10,04,19,14.80
2006,07,10,04,20,14.80
2006,07,10,04,21,14.80
2006,07,10,04,22,14.80
2006,07,10,04,23,14.80
2006,07,10,04,24,14.80
2006,07,10,04,25,14.80
2006,07,10,04,26,14.80
2006,07,10,04,27,14.80
2006,07,10,04,28,14.90
2006,07,10,04,29,14.90
2006,07,10,04,30,14.90
2006,07,10,04,31,15.00
2006,07,10,04,32,15.00
2006,07,10,04,33,15.00
2006,07,10,04,34,15.00
2006,07,10,04,35,15.00
2006,07,10,04,36,15.00
2006,07,10,04,37,15.00
2006,07,10,04,38,15.10
2006,07,10,04,39,15.10
2006,07,10,04,40,15.10
2006,07,10,04,41,15.10
2006,07,10,04,42,15.10
2006,07,10,04,43,15.10
2006,07,10,04,44,15.10
2006,07,10,04,45,15.10
2006,07,10,04,46,15.00
2006,07,10,04,47,15.00
2006,07,10,04,48,15.00
2006,07,10,04,49,15.00
2006,07,10,04,50,15.00
2006,07,10,04,51,15.00
2006,07,10,04,52,14.90
2006,07,10,04,53,14.90
2006,07,10,04,54,14.90
2006,07,10,04,55,14.90
2006,07,10,04,56,14.90
2006,07,10,04,57,14.90
2006,07,10,04,58,14.80
2006,07,10,04,59,14.80
2006,07,10,05,00,14.80
2006,07,10,05,01,14.80
2006,07,10,05,02,14.80
2006,07,10,05,03,14.80
2006,07,10,05,04,14.80
2006,07,10,05,05,14.80
2006,07,10,05,06,14.80
2006,07,10,05,07,14.80
2006,07,10,05,08,14.80
2006,07,10,05,09,14.80
2006,07,10,05,10,14.80
2006,07,10,05,11,14.70
2006,07,10,05,12,14.70
2006,07,10,05,13,14.70
2006,07,10,05,14,14.70
2006,07,10,05,15,14.70
2006,07,10,05,16,14.70
2006,07,10,05,17,14.70
2006,07,10,05,18,14.70
2006,07,10,05,19,14.70
2006,07,10,05,20,14.70
2006,07,10,05,21,14.70
2006,07,10,05,22,14.70
2006,07,10,05,23,14.70
2006,07,10,05,24,14.60
2006,07,10,05,25,14.60
2006,07,10,05,26,14.60
2006,07,10,05,27,14.60
2006,07,10,05,28,14.60
2006,07,10,05,29,14.60
2006,07,10,05,30,14.60
2006,07,10,05,31,14.60
2006,07,10,05,32,14.60
2006,07,10,05,33,14.60
2006,07,10,05,34,14.60
2006,07,10,05,35,14.50
2006,07,10,05,36,14.50
2006,07,10,05,37,14.50
2006,07,10,05,38,14.50
2006,07,10,05,39,14.50
2006,07,10,05,40,14.50
2006,07,10,05,41,14.50
2006,07,10,05,42,14.50
2006,07,10,05,43,14.50
2006,07,10,05,44,14.40
2006,07,10,05,45,14.40
2006,07,10,05,46,14.40
2006,07,10,05,47,14.40
2006,07,10,05,48,14.40
2006,07,10,05,49,14.40
2006,07,10,05,50,14.40
2006,07,10,05,51,14.30
2006,07,10,05,52,14.30
2006,07,10,05,53,14.30
2006,07,10,05,54,14.30
2006,07,10,05,55,14.30
2006,07,10,05,56,14.30
2006,07,10,05,57,14.30
2006,07,10,05,58,14.30
2006,07,10,05,59,14.30
2006,07,10,06,00,14.20
2006,07,10,06,01,14.20
2006,07,10,06,02,14.30
2006,07,10,06,03,14.30
2006,07,10,06,04,14.30
2006,07,10,06,05,14.30
2006,07,10,06,06,14.30
2006,07,10,06,07,14.30
2006,07,10,06,08,14.30
2006,07,10,06,09,14.30
2006,07,10,06,10,14.30
2006,07,10,06,11,14.30
2006,07,10,06,12,14.30
2006,07,10,06,13,14.30
2006,07,10,06,14,14.30
2006,07,10,06,15,14.30
2006,07,10,06,16,14.30
2006,07,10,06,17,14.30
2006,07,10,06,18,14.40
2006,07,10,06,19,14.40
2006,07,10,06,20,14.40
2006,07,10,06,21,14.40
2006,07,10,06,22,14.40
2006,07,10,06,23,14.40
2006,07,10,06,24,14.40
2006,07,10,06,25,14.50
2006,07,10,06,26,14.50
2006,07,10,06,27,14.50
2006,07,10,06,28,14.50
2006,07,10,06,29,14.50
2006,07,10,06,30,14.50
2006,07,10,06,31,14.50
2006,07,10,06,32,14.60
2006,07,10,06,33,14.60
2006,07,10,06,34,14.60
2006,07,10,06,35,14.60
2006,07,10,06,36,14.60
2006,07,10,06,37,14.60
2006,07,10,06,38,14.60
2006,07,10,06,39,14.60
2006,07,10,06,40,14.70
2006,07,10,06,41,14.70
2006,07,10,06,42,14.70
2006,07,10,06,43,14.70
2006,07,10,06,44,14.80
2006,07,10,06,45,14.80
2006,07,10,06,46,14.80
2006,07,10,06,47,14.80
2006,07,10,06,48,14.80
2006,07,10,06,49,14.80
2006,07,10,06,50,14.80
2006,07,10,06,51,14.80
2006,07,10,06,52,14.80
2006,07,10,06,53,14.80
2006,07,10,06,54,14.90
2006,07,10,06,55,14.90
2006,07,10,06,56,14.90
2006,07,10,06,57,14.90
2006,07,10,06,58,14.90
2006,07,10,06,59,15.00
2006,07,10,07,00,15.00
2006,07,10,07,01,15.00
2006,07,10,07,02,15.00
2006,07,10,07,03,15.00
2006,07,10,07,04,15.10
2006,07,10,07,05,15.10
2006,07,10,07,06,15.10
2006,07,10,07,07,15.10
2006,07,10,07,08,15.10
2006,07,10,07,09,15.10
2006,07,10,07,10,15.10
2006,07,10,07,11,15.10
2006,07,10,07,12,15.10
2006,07,10,07,13,15.10
2006,07,10,07,14,15.10
2006,07,10,07,15,15.10
2006,07,10,07,16,15.10
2006,07,10,07,17,15.20
2006,07,10,07,18,15.20
2006,07,10,07,19,15.20
2006,07,10,07,20,15.20
2006,07,10,07,21,15.30
2006,07,10,07,22,15.30
2006,07,10,07,23,15.30
2006,07,10,07,24,15.30
2006,07,10,07,25,15.40
2006,07,10,07,26,15.40
2006,07,10,07,27,15.50
2006,07,10,07,28,15.50
2006,07,10,07,29,15.60
2006,07,10,07,30,15.60
2006,07,10,07,31,15.70
2006,07,10,07,32,15.70
2006,07,10,07,33,15.80
2006,07,10,07,34,15.80
2006,07,10,07,35,15.90
2006,07,10,07,36,16.00
2006,07,10,07,37,16.10
2006,07,10,07,38,16.10
2006,07,10,07,39,16.10
2006,07,10,07,40,16.10
2006,07,10,07,41,16.20
2006,07,10,07,42,16.20
2006,07,10,07,43,16.30
2006,07,10,07,44,16.30
2006,07,10,07,45,16.30
2006,07,10,07,46,16.30
2006,07,10,07,47,16.30
2006,07,10,07,48,16.30
2006,07,10,07,49,16.30
2006,07,10,07,50,16.30
2006,07,10,07,51,16.30
2006,07,10,07,52,16.30
2006,07,10,07,53,16.40
2006,07,10,07,54,16.40
2006,07,10,07,55,16.40
2006,07,10,07,56,16.40
2006,07,10,07,57,16.40
2006,07,10,07,58,16.40
2006,07,10,07,59,16.40
2006,07,10,08,00,16.50
2006,07,10,08,01,16.60
2006,07,10,08,02,16.60
2006,07,10,08,03,16.60
2006,07,10,08,04,16.60
2006,07,10,08,05,16.50
2006,07,10,08,06,16.60
2006,07,10,08,07,16.60
2006,07,10,08,08,16.70
2006,07,10,08,09,16.70
2006,07,10,08,10,16.70
2006,07,10,08,11,16.70
2006,07,10,08,12,16.70
2006,07,10,08,13,16.70
2006,07,10,08,14,16.80
2006,07,10,08,15,16.80
2006,07,10,08,16,16.90
2006,07,10,08,17,16.90
2006,07,10,08,18,16.90
2006,07,10,08,19,16.90
2006,07,10,08,20,16.90
2006,07,10,08,21,16.90
2006,07,10,08,22,16.90
2006,07,10,08,23,17.00
2006,07,10,08,24,17.00
2006,07,10,08,25,17.10
2006,07,10,08,26,17.10
2006,07,10,08,27,17.10
2006,07,10,08,28,17.20
2006,07,10,08,29,17.20
2006,07,10,08,30,17.20
2006,07,10,08,31,17.20
2006,07,10,08,32,17.20
2006,07,10,08,33,17.20
2006,07,10,08,34,17.10
2006,07,10,08,35,17.10
2006,07,10,08,36,17.10
2006,07,10,08,37,17.10
2006,07,10,08,38,17.10
2006,07,10,08,39,17.10
2006,07,10,08,40,17.10
2006,07,10,08,41,17.10
2006,07,10,08,42,17.10
2006,07,10,08,43,17.10
2006,07,10,08,44,17.10
2006,07,10,08,45,17.10
2006,07,10,08,46,17.20
2006,07,10,08,47,17.20
2006,07,10,08,48,17.20
2006,07,10,08,49,17.30
2006,07,10,08,50,17.30
2006,07,10,08,51,17.30
2006,07,10,08,52,17.30
2006,07,10,08,53,17.30
2006,07,10,08,54,17.30
2006,07,10,08,55,17.20
2006,07,10,08,56,17.20
2006,07,10,08,57,17.20
2006,07,10,08,58,17.20
2006,07,10,08,59,17.20
2006,07,10,09,00,17.20
2006,07,10,09,01,17.20
2006,07,10,09,02,17.20
2006,07,10,09,03,17.20
2006,07,10,09,04,17.20
2006,07,10,09,05,17.20
2006,07,10,09,06,17.10
2006,07,10,09,07,17.10
2006,07,10,09,08,17.00
2006,07,10,09,09,17.00
2006,07,10,09,10,17.00
2006,07,10,09,11,17.00
2006,07,10,09,12,17.00
2006,07,10,09,13,17.00
2006,07,10,09,14,17.00
2006,07,10,09,15,17.10
2006,07,10,09,16,17.10
2006,07,10,09,17,17.10
2006,07,10,09,18,17.10
2006,07,10,09,19,17.10
2006,07,10,09,20,17.10
2006,07,10,09,21,17.10
2006,07,10,09,22,17.10
2006,07,10,09,23,17.10
2006,07,10,09,24,17.10
2006,07,10,09,25,17.10
2006,07,10,09,26,17.10
2006,07,10,09,27,17.10
2006,07,10,09,28,17.20
2006,07,10,09,29,17.20
2006,07,10,09,30,17.20
2006,07,10,09,31,17.20
2006,07,10,09,32,17.30
2006,07,10,09,33,17.30
2006,07,10,09,34,17.30
2006,07,10,09,35,17.30
2006,07,10,09,36,17.30
2006,07,10,09,37,17.30
2006,07,10,09,38,17.30
2006,07,10,09,39,17.30
2006,07,10,09,40,17.30
2006,07,10,09,41,17.30
2006,07,10,09,42,17.30
2006,07,10,09,43,17.30
2006,07,10,09,44,17.20
2006,07,10,09,45,17.20
2006,07,10,09,46,17.20
2006,07,10,09,47,17.10
2006,07,10,09,48,17.10
2006,07,10,09,49,17.10
2006,07,10,09,50,17.10
2006,07,10,09,51,17.10
2006,07,10,09,52,17.10
2006,07,10,09,53,17.00
2006,07,10,09,54,17.00
2006,07,10,09,55,17.00
2006,07,10,09,56,17.00
2006,07,10,09,57,17.10
2006,07,10,09,58,17.10
2006,07,10,09,59,17.10
2006,07,10,10,00,17.20
2006,07,10,10,01,17.20
2006,07,10,10,02,17.20
2006,07,10,10,03,17.30
2006,07,10,10,04,17.20
2006,07,10,10,05,17.10
2006,07,10,10,06,17.10
2006,07,10,10,07,17.10
2006,07,10,10,08,17.10
2006,07,10,10,09,17.10
2006,07,10,10,10,17.10
2006,07,10,10,11,17.10
2006,07,10,10,12,17.10
2006,07,10,10,13,17.20
2006,07,10,10,14,17.20
2006,07,10,10,15,17.20
2006,07,10,10,16,17.30
2006,07,10,10,17,17.30
2006,07,10,10,18,17.30
2006,07,10,10,19,17.30
2006,07,10,10,20,17.40
2006,07,10,10,21,17.40
2006,07,10,10,22,17.50
2006,07,10,10,23,17.50
2006,07,10,10,24,17.50
2006,07,10,10,25,17.60
2006,07,10,10,26,17.60
2006,07,10,10,27,17.50
2006,07,10,10,28,17.50
2006,07,10,10,29,17.40
2006,07,10,10,30,17.40
2006,07,10,10,31,17.40
2006,07,10,10,32,17.40
2006,07,10,10,33,17.40
2006,07,10,10,34,17.50
2006,07,10,10,35,17.50
2006,07,10,10,36,17.40
2006,07,10,10,37,17.40
2006,07,10,10,38,17.40
2006,07,10,10,39,17.30
2006,07,10,10,40,17.30
2006,07,10,10,41,17.30
2006,07,10,10,42,17.30
2006,07,10,10,43,17.30
2006,07,10,10,44,17.30
2006,07,10,10,45,17.30
2006,07,10,10,46,17.30
2006,07,10,10,47,17.30
2006,07,10,10,48,17.20
2006,07,10,10,49,17.20
2006,07,10,10,50,17.20
2006,07,10,10,51,17.20
2006,07,10,10,52,17.20
2006,07,10,10,53,17.20
2006,07,10,10,54,17.20
2006,07,10,10,55,17.20
2006,07,10,10,56,17.30
2006,07,10,10,57,17.30
2006,07,10,10,58,17.30
2006,07,10,10,59,17.40
2006,07,10,11,00,17.40
2006,07,10,11,01,17.50
2006,07,10,11,02,17.50
2006,07,10,11,03,17.50
2006,07,10,11,04,17.50
2006,07,10,11,05,17.50
2006,07,10,11,06,17.50
2006,07,10,11,07,17.60
2006,07,10,11,08,17.60
2006,07,10,11,09,17.70
2006,07,10,11,10,17.80
2006,07,10,11,11,17.80
2006,07,10,11,12,17.90
2006,07,10,11,13,17.90
2006,07,10,11,14,18.00
2006,07,10,11,15,18.20
2006,07,10,11,16,18.20
2006,07,10,11,17,18.20
2006,07,10,11,18,18.10
2006,07,10,11,19,18.10
2006,07,10,11,20,18.10
2006,07,10,11,21,18.10
2006,07,10,11,22,18.10
2006,07,10,11,23,18.20
2006,07,10,11,24,18.20
2006,07,10,11,25,18.30
2006,07,10,11,26,18.30
2006,07,10,11,27,18.40
2006,07,10,11,28,18.40
2006,07,10,11,29,18.40
2006,07,10,11,30,18.40
2006,07,10,11,31,18.50
2006,07,10,11,32,18.50
2006,07,10,11,33,18.60
2006,07,10,11,34,18.70
2006,07,10,11,35,18.80
2006,07,10,11,36,18.80
2006,07,10,11,37,18.70
2006,07,10,11,38,18.80
2006,07,10,11,39,18.80
2006,07,10,11,40,18.70
2006,07,10,11,41,18.70
2006,07,10,11,42,18.90
2006,07,10,11,43,19.00
2006,07,10,11,44,19.10
2006,07,10,11,45,19.10
2006,07,10,11,46,19.10
2006,07,10,11,47,19.10
2006,07,10,11,48,19.20
2006,07,10,11,49,19.20
2006,07,10,11,50,19.20
2006,07,10,11,51,19.30
2006,07,10,11,52,19.30
2006,07,10,11,53,19.30
2006,07,10,11,54,19.30
2006,07,10,11,55,19.30
2006,07,10,11,56,19.30
2006,07,10,11,57,19.30
2006,07,10,11,58,19.30
2006,07,10,11,59,19.20
2006,07,10,12,00,19.20
2006,07,10,12,01,19.20
2006,07,10,12,02,19.10
2006,07,10,12,03,19.10
2006,07,10,12,04,19.10
2006,07,10,12,05,19.10
2006,07,10,12,06,19.10
2006,07,10,12,07,19.10
2006,07,10,12,08,19.10
2006,07,10,12,09,19.10
2006,07,10,12,10,19.10
2006,07,10,12,11,19.20
2006,07,10,12,12,19.10
2006,07,10,12,13,19.00
2006,07,10,12,14,18.90
2006,07,10,12,15,18.90
2006,07,10,12,16,18.90
2006,07,10,12,17,18.90
2006,07,10,12,18,19.10
2006,07,10,12,19,19.10
2006,07,10,12,20,19.20
2006,07,10,12,21,19.20
2006,07,10,12,22,19.20
2006,07,10,12,23,19.10
2006,07,10,12,24,19.10
2006,07,10,12,25,19.10
2006,07,10,12,26,19.20
2006,07,10,12,27,19.30
2006,07,10,12,28,19.20
2006,07,10,12,29,19.20
2006,07,10,12,30,19.40
2006,07,10,12,31,19.50
2006,07,10,12,32,19.60
2006,07,10,12,33,19.60
2006,07,10,12,34,19.70
2006,07,10,12,35,19.70
2006,07,10,12,36,19.80
2006,07,10,12,37,19.90
2006,07,10,12,38,19.90
2006,07,10,12,39,19.90
2006,07,10,12,40,19.90
2006,07,10,12,41,19.90
2006,07,10,12,42,20.10
2006,07,10,12,43,20.10
2006,07,10,12,44,20.10
2006,07,10,12,45,19.90
2006,07,10,12,46,19.90
2006,07,10,12,47,19.70
2006,07,10,12,48,19.60
2006,07,10,12,49,19.60
2006,07,10,12,50,19.50
2006,07,10,12,51,19.50
2006,07,10,12,52,19.40
2006,07,10,12,53,19.30
2006,07,10,12,54,19.20
2006,07,10,12,55,19.20
2006,07,10,12,56,19.20
2006,07,10,12,57,19.20
2006,07,10,12,58,19.10
2006,07,10,12,59,19.10
2006,07,10,13,00,19.10
2006,07,10,13,01,19.20
2006,07,10,13,02,19.10
2006,07,10,13,03,19.10
2006,07,10,13,04,19.10
2006,07,10,13,05,19.10
2006,07,10,13,06,19.20
2006,07,10,13,07,19.30
2006,07,10,13,08,19.40
2006,07,10,13,09,19.60
2006,07,10,13,10,19.70
2006,07,10,13,11,19.80
2006,07,10,13,12,19.90
2006,07,10,13,13,20.00
2006,07,10,13,14,20.10
2006,07,10,13,15,20.20
2006,07,10,13,16,20.20
2006,07,10,13,17,20.20
2006,07,10,13,18,20.20
2006,07,10,13,19,20.20
2006,07,10,13,20,20.30
2006,07,10,13,21,20.30
2006,07,10,13,22,20.40
2006,07,10,13,23,20.30
2006,07,10,13,24,20.10
2006,07,10,13,25,20.00
2006,07,10,13,26,19.90
2006,07,10,13,27,19.90
2006,07,10,13,28,19.90
2006,07,10,13,29,19.90
2006,07,10,13,30,19.90
2006,07,10,13,31,19.90
2006,07,10,13,32,19.90
2006,07,10,13,33,19.80
2006,07,10,13,34,19.80
2006,07,10,13,35,19.90
2006,07,10,13,36,19.90
2006,07,10,13,37,20.00
2006,07,10,13,38,20.20
2006,07,10,13,39,20.20
2006,07,10,13,40,20.20
2006,07,10,13,41,20.30
2006,07,10,13,42,20.40
2006,07,10,13,43,20.60
2006,07,10,13,44,20.70
2006,07,10,13,45,20.80
2006,07,10,13,46,21.00
2006,07,10,13,47,21.10
2006,07,10,13,48,21.20
2006,07,10,13,49,21.30
2006,07,10,13,50,21.40
2006,07,10,13,51,21.50
2006,07,10,13,52,21.60
2006,07,10,13,53,21.60
2006,07,10,13,54,21.60
2006,07,10,13,55,21.60
2006,07,10,13,56,21.60
2006,07,10,13,57,21.40
2006,07,10,13,58,21.30
2006,07,10,13,59,21.30
2006,07,10,14,00,21.30
2006,07,10,14,01,21.30
2006,07,10,14,02,21.10
2006,07,10,14,03,21.00
2006,07,10,14,04,20.80
2006,07,10,14,05,20.70
2006,07,10,14,06,20.50
2006,07,10,14,07,20.50
2006,07,10,14,08,20.50
2006,07,10,14,09,20.50
2006,07,10,14,10,20.50
2006,07,10,14,11,20.50
2006,07,10,14,12,20.50
2006,07,10,14,13,20.60
2006,07,10,14,14,20.80
2006,07,10,14,15,20.90
2006,07,10,14,16,20.90
2006,07,10,14,17,20.80
2006,07,10,14,18,20.90
2006,07,10,14,19,21.00
2006,07,10,14,20,21.00
2006,07,10,14,21,21.10
2006,07,10,14,22,21.30
2006,07,10,14,23,21.30
2006,07,10,14,24,21.50
2006,07,10,14,25,21.50
2006,07,10,14,26,21.40
2006,07,10,14,27,21.30
2006,07,10,14,28,21.30
2006,07,10,14,29,21.30
2006,07,10,14,30,21.30
2006,07,10,14,31,21.30
2006,07,10,14,32,21.40
2006,07,10,14,33,21.40
2006,07,10,14,34,21.50
2006,07,10,14,35,21.60
2006,07,10,14,36,21.60
2006,07,10,14,37,21.60
2006,07,10,14,38,21.70
2006,07,10,14,39,21.80
2006,07,10,14,40,21.80
2006,07,10,14,41,21.70
2006,07,10,14,42,21.80
2006,07,10,14,43,21.90
2006,07,10,14,44,22.00
2006,07,10,14,45,22.10
2006,07,10,14,46,22.20
2006,07,10,14,47,22.20
2006,07,10,14,48,22.20
2006,07,10,14,49,22.20
2006,07,10,14,50,22.30
2006,07,10,14,51,22.40
2006,07,10,14,52,22.50
2006,07,10,14,53,22.50
2006,07,10,14,54,22.50
2006,07,10,14,55,22.60
2006,07,10,14,56,22.60
2006,07,10,14,57,22.50
2006,07,10,14,58,22.30
2006,07,10,14,59,22.30
2006,07,10,15,00,22.20
2006,07,10,15,01,22.20
2006,07,10,15,02,22.20
2006,07,10,15,03,22.20
2006,07,10,15,04,22.30
2006,07,10,15,05,22.40
2006,07,10,15,06,22.40
2006,07,10,15,07,22.30
2006,07,10,15,08,22.40
2006,07,10,15,09,22.40
2006,07,10,15,10,22.50
2006,07,10,15,11,22.60
2006,07,10,15,12,22.70
2006,07,10,15,13,22.70
2006,07,10,15,14,22.80
2006,07,10,15,15,22.70
2006,07,10,15,16,22.60
2006,07,10,15,17,22.40
2006,07,10,15,18,22.40
2006,07,10,15,19,22.30
2006,07,10,15,20,22.20
2006,07,10,15,21,22.10
2006,07,10,15,22,22.10
2006,07,10,15,23,22.10
2006,07,10,15,24,22.10
2006,07,10,15,25,22.20
2006,07,10,15,26,22.30
2006,07,10,15,27,22.30
2006,07,10,15,28,22.40
2006,07,10,15,29,22.50
2006,07,10,15,30,22.60
2006,07,10,15,31,22.60
2006,07,10,15,32,22.60
2006,07,10,15,33,22.60
2006,07,10,15,34,22.60
2006,07,10,15,35,22.60
2006,07,10,15,36,22.50
2006,07,10,15,37,22.50
2006,07,10,15,38,22.60
2006,07,10,15,39,22.60
2006,07,10,15,40,22.60
2006,07,10,15,41,22.60
2006,07,10,15,42,22.60
2006,07,10,15,43,22.70
2006,07,10,15,44,22.70
2006,07,10,15,45,22.70
2006,07,10,15,46,22.60
2006,07,10,15,47,22.60
2006,07,10,15,48,22.60
2006,07,10,15,49,22.40
2006,07,10,15,50,22.40
2006,07,10,15,51,22.30
2006,07,10,15,52,22.20
2006,07,10,15,53,22.10
2006,07,10,15,54,22.20
2006,07,10,15,55,22.20
2006,07,10,15,56,22.30
2006,07,10,15,57,22.40
2006,07,10,15,58,22.50
2006,07,10,15,59,22.60
2006,07,10,16,00,22.60
2006,07,10,16,01,22.60
2006,07,10,16,02,22.40
2006,07,10,16,03,22.40
2006,07,10,16,04,22.40
2006,07,10,16,05,22.50
2006,07,10,16,06,22.60
2006,07,10,16,07,22.70
2006,07,10,16,08,22.80
2006,07,10,16,09,22.90
2006,07,10,16,10,22.90
2006,07,10,16,11,22.90
2006,07,10,16,12,22.90
2006,07,10,16,13,22.80
2006,07,10,16,14,22.80
2006,07,10,16,15,22.80
2006,07,10,16,16,22.80
2006,07,10,16,17,22.90
2006,07,10,16,18,22.90
2006,07,10,16,19,22.90
2006,07,10,16,20,22.90
2006,07,10,16,21,22.90
2006,07,10,16,22,22.80
2006,07,10,16,23,22.80
2006,07,10,16,24,22.70
2006,07,10,16,25,22.60
2006,07,10,16,26,22.60
2006,07,10,16,27,22.70
2006,07,10,16,28,22.70
2006,07,10,16,29,22.60
2006,07,10,16,30,22.50
2006,07,10,16,31,22.50
2006,07,10,16,32,22.60
2006,07,10,16,33,22.60
2006,07,10,16,34,22.70
2006,07,10,16,35,22.70
2006,07,10,16,36,22.80
2006,07,10,16,37,22.80
2006,07,10,16,38,22.80
2006,07,10,16,39,22.80
2006,07,10,16,40,22.90
2006,07,10,16,41,22.90
2006,07,10,16,42,22.90
2006,07,10,16,43,22.90
2006,07,10,16,44,22.80
2006,07,10,16,45,22.70
2006,07,10,16,46,22.70
2006,07,10,16,47,22.70
2006,07,10,16,48,22.60
2006,07,10,16,49,22.60
2006,07,10,16,50,22.60
2006,07,10,16,51,22.70
2006,07,10,16,52,22.90
2006,07,10,16,53,23.00
2006,07,10,16,54,23.10
2006,07,10,16,55,23.20
2006,07,10,16,56,23.10
2006,07,10,16,57,23.00
2006,07,10,16,58,22.90
2006,07,10,16,59,22.90
2006,07,10,17,00,22.80
2006,07,10,17,01,22.80
2006,07,10,17,02,22.70
2006,07,10,17,03,22.70
2006,07,10,17,04,22.60
2006,07,10,17,05,22.40
2006,07,10,17,06,22.30
2006,07,10,17,07,22.20
2006,07,10,17,08,22.20
2006,07,10,17,09,22.20
2006,07,10,17,10,22.20
2006,07,10,17,11,22.10
2006,07,10,17,12,22.10
2006,07,10,17,13,22.20
2006,07,10,17,14,22.30
2006,07,10,17,15,22.30
2006,07,10,17,16,22.40
2006,07,10,17,17,22.40
2006,07,10,17,18,22.40
2006,07,10,17,19,22.50